Change the Weather History Date:

Thursday, August 21, 2014

  Actual Average Record
Temperature  
Mean Temperature 58 °F -  
Max Temperature 67 °F 68 °F 86 °F (1997)
Min Temperature 48 °F 52 °F 48 °F (1999)
Degree Days  
Heating Degree Days 8    
Growing Degree Days 8 (Base 50)    
Moisture  
Dew Point 46 °F    
Average Humidity 66    
Maximum Humidity 94    
Minimum Humidity 34    
Precipitation  
Precipitation 0.00 in - - ()
Sea Level Pressure  
Sea Level Pressure 30.01 in    
Wind  
Wind Speed 7 mph ()    
Max Wind Speed 13 mph    
Max Gust Speed -    
Visibility 7.5 miles    
Events      
Averages and records for this station are not official NWS values.
T = Trace of Precipitation, MM = Missing Value Source: Averaged Metar Reports

Daily Weather History Graph

Daily Weather History Graph

Search for Another Location

Airport or City:

Trip Planner

Search our weather history database for the weather conditions in past years. The results will help you decide how hot, cold, wet, or windy it might be!

Date:

Astronomy

Aug. 21, 2014 Rise Set
Actual Time 6:37 AM CEST 8:51 PM CEST
Civil Twilight 6:01 AM CEST 9:27 PM CEST
Nautical Twilight 5:15 AM CEST 10:13 PM CEST
Astronomical Twilight 4:23 AM CEST 11:05 PM CEST
Moon 2:42 AM CEST (8/21) 6:19 PM CEST (8/21)
Length of Visible Light 15h 26m
Length of Day
14h 14m
Waning Crescent, 15% of the Moon is Illuminated
Aug 21
Waning Crescent
Aug 25
New
Sep 2
First Quarter
Sep 9
Full
Sep 16
Last Quarter

Hourly Weather History & Observations

Time (CEST) Temp. Dew Point Humidity Pressure Visibility Wind Dir Wind Speed Gust Speed Precip Events Conditions
12:00 AM 53 °F 49 °F 80% 30.04 in 22 mi SW 6.7 mph - -  
12:20 AM 51.8 °F 48.2 °F 88% 30.04 in - SW 6.9 mph - N/A   Clear
12:50 AM 51.8 °F 48.2 °F 88% 30.04 in - SW 4.6 mph - N/A   Clear
1:00 AM 51 °F 48 °F 86% 30.05 in 9 mi SW 4.5 mph - -  
1:20 AM 51.8 °F 48.2 °F 88% 30.04 in - SSW 3.5 mph - N/A   Clear
1:50 AM 51.8 °F 48.2 °F 88% 30.04 in - WNW 5.8 mph - N/A   Clear
2:00 AM 51 °F 48 °F 87% 30.06 in 9 mi WNW 4.5 mph - -   Scattered Clouds
2:20 AM 51.8 °F 48.2 °F 88% 30.04 in - Calm Calm - N/A   Clear
2:50 AM 50.0 °F 46.4 °F 87% 30.04 in - South 3.5 mph - N/A   Clear
3:00 AM 50 °F 47 °F 87% 30.05 in - South 2.2 mph - -  
3:20 AM 50.0 °F 48.2 °F 94% 30.04 in - South 3.5 mph - N/A   Clear
3:50 AM 48.2 °F 46.4 °F 93% 30.04 in 5.6 mi South 4.6 mph - N/A   Unknown
4:00 AM 49 °F 46 °F 87% 30.04 in - South 4.5 mph - -   Partly Cloudy
4:20 AM 50.0 °F 48.2 °F 94% 30.04 in 6.2 mi SW 4.6 mph - N/A   Partly Cloudy
4:50 AM 51.8 °F 48.2 °F 88% 30.04 in - SW 6.9 mph - N/A   Clear
5:00 AM 51 °F 48 °F 84% 30.04 in 11 mi SW 6.7 mph - -   Overcast
5:20 AM 51.8 °F 48.2 °F 88% 30.01 in - South 6.9 mph - N/A   Clear
5:50 AM 51.8 °F 46.4 °F 82% 30.01 in - SSW 8.1 mph - N/A   Clear
6:00 AM 51 °F 47 °F 80% 30.02 in 11 mi SSW 8.9 mph - -   Mostly Cloudy
6:20 AM 50.0 °F 46.4 °F 87% 30.01 in - SW 8.1 mph - N/A   Clear
6:50 AM 50.0 °F 46.4 °F 87% 30.01 in - SW 8.1 mph - N/A   Clear
7:00 AM 50 °F 46 °F 82% 30.03 in 9 mi SW 6.7 mph - -   Scattered Clouds
7:20 AM 50.0 °F 46.4 °F 87% 30.01 in - SW 6.9 mph - N/A   Clear
7:50 AM 51.8 °F 46.4 °F 82% 30.04 in - SW 8.1 mph - N/A   Clear
8:00 AM 51 °F 46 °F 77% 30.04 in 9 mi SW 6.7 mph - -   Scattered Clouds
8:20 AM 51.8 °F 46.4 °F 82% 30.04 in - SW 9.2 mph - N/A   Clear
8:50 AM 53.6 °F 46.4 °F 77% 30.04 in - SW 9.2 mph - N/A   Clear
9:00 AM 54 °F 47 °F 69% 30.04 in 9 mi SW 8.9 mph - -   Scattered Clouds
9:20 AM 55.4 °F 46.4 °F 72% 30.04 in - SW 8.1 mph - N/A   Clear
9:50 AM 57.2 °F 48.2 °F 72% 30.04 in - SW 9.2 mph - N/A   Clear
10:00 AM 58 °F 48 °F 59% 30.04 in 9 mi SW 8.9 mph - -   Clear
10:20 AM 59.0 °F 46.4 °F 63% 30.04 in - SW 8.1 mph - N/A   Clear
10:50 AM 60.8 °F 48.2 °F 63% 30.04 in - SW 9.2 mph - N/A   Clear
11:00 AM 60 °F 49 °F 56% 30.04 in 16 mi SW 8.9 mph - -   Scattered Clouds
11:20 AM 60.8 °F 48.2 °F 63% 30.04 in 6.2 mi SW 9.2 mph - N/A   Partly Cloudy
11:50 AM 62.6 °F 46.4 °F 55% 30.04 in 6.2 mi WSW 9.2 mph - N/A   Partly Cloudy
12:00 PM 63 °F 47 °F 45% 30.04 in 25 mi WSW 8.9 mph - -   Scattered Clouds
12:20 PM 62.6 °F 46.4 °F 55% 30.04 in 6.2 mi SW 10.4 mph - N/A   Partly Cloudy
12:50 PM 62.6 °F 44.6 °F 52% 30.04 in 6.2 mi WSW 9.2 mph - N/A   Scattered Clouds
1:00 PM 62 °F 44 °F 40% 30.03 in 25 mi WSW 8.9 mph - -   Partly Cloudy
1:20 PM 62.6 °F 42.8 °F 48% 30.01 in 6.2 mi SW 11.5 mph - N/A   Scattered Clouds
1:50 PM 66.2 °F 46.4 °F 49% 30.01 in 6.2 mi SW 11.5 mph - N/A   Scattered Clouds
2:00 PM 66 °F 46 °F 36% 30.02 in 25 mi SW 11.2 mph - -   Partly Cloudy
2:20 PM 64.4 °F 42.8 °F 45% 30.01 in 6.2 mi SW 9.2 mph - N/A   Scattered Clouds
2:50 PM 64.4 °F 42.8 °F 45% 30.01 in 6.2 mi SSW 12.7 mph - N/A   Partly Cloudy
3:00 PM 65 °F 44 °F 34% 30.01 in 25 mi SSW 11.2 mph - -   Scattered Clouds
3:20 PM 66.2 °F 46.4 °F 49% 30.01 in 6.2 mi SSW 11.5 mph - N/A   Partly Cloudy
3:50 PM 64.4 °F 44.6 °F 49% 29.98 in 6.2 mi SW 12.7 mph - N/A   Partly Cloudy
4:00 PM 65 °F 45 °F 37% 30.00 in 25 mi SW 13.4 mph - -   Scattered Clouds
4:20 PM 62.6 °F 44.6 °F 52% 29.98 in 6.2 mi SW 11.5 mph - N/A   Partly Cloudy
4:50 PM 64.4 °F 44.6 °F 49% 29.98 in 6.2 mi SW 9.2 mph - N/A   Partly Cloudy
5:00 PM 64 °F 45 °F 39% 29.99 in 25 mi SW 8.9 mph - -   Scattered Clouds
5:20 PM 62.6 °F 44.6 °F 52% 29.98 in 6.2 mi SW 8.1 mph - N/A   Partly Cloudy
5:50 PM 62.6 °F 46.4 °F 55% 29.98 in 6.2 mi WSW 10.4 mph - N/A   Scattered Clouds
6:00 PM 63 °F 46 °F 42% 29.98 in 25 mi WSW 11.2 mph - -   Partly Cloudy
6:20 PM 62.6 °F 46.4 °F 55% 29.98 in 6.2 mi WSW 8.1 mph - N/A   Scattered Clouds
6:50 PM 62.6 °F 46.4 °F 55% 29.98 in 6.2 mi SW 9.2 mph - N/A   Scattered Clouds
7:00 PM 63 °F 47 °F 45% 29.97 in 25 mi SW 8.9 mph - -   Partly Cloudy
7:20 PM 62.6 °F 48.2 °F 59% 29.95 in 6.2 mi SSW 8.1 mph - N/A   Scattered Clouds
7:50 PM 62.6 °F 48.2 °F 59% 29.95 in - SW 6.9 mph - N/A   Clear
8:00 PM 62 °F 48 °F 49% 29.96 in 25 mi SW 6.7 mph - -   Partly Cloudy
8:20 PM 60.8 °F 48.2 °F 63% 29.95 in - SW 6.9 mph - N/A   Clear
8:50 PM 60.8 °F 44.6 °F 55% 29.95 in - West 8.1 mph - N/A   Clear
9:00 PM 60 °F 44 °F 45% 29.97 in 25 mi West 6.7 mph - -   Partly Cloudy
9:20 PM 59.0 °F 42.8 °F 55% 29.95 in - WSW 6.9 mph - N/A   Clear
9:50 PM 59.0 °F 44.6 °F 59% 29.98 in - SW 5.8 mph - N/A   Clear
10:00 PM 58 °F 44 °F 50% 29.97 in 25 mi SW 4.5 mph - -   Clear
10:20 PM 57.2 °F 44.6 °F 63% 29.98 in - SW 5.8 mph - N/A   Clear
10:50 PM 57.2 °F 44.6 °F 63% 29.98 in - SSW 5.8 mph - N/A   Clear
11:00 PM 56 °F 45 °F 57% 29.98 in 25 mi SSW 4.5 mph - -   Clear
11:20 PM 55.4 °F 44.6 °F 67% 29.95 in - SSW 5.8 mph - N/A   Clear
11:50 PM 55.4 °F 44.6 °F 67% 29.95 in - SW 5.8 mph - N/A   Clear